Location: Barrialito
(10.1025°N, 66.8154°W)
Time: 15:40:12
(UTC+00:00)

FALCON 9 R/B - Pass Details

Date: 10 September 2024
Orbit: 288 x 9597 km, 34.5° (Epoch: 15 October)

Event Time Altitude Azimuth Distance (km) Brightness Sun altitude
Rises 22:28:38 0° 189° (S) 3,027 5.2 -0.4°
Reaches altitude 10° 22:30:51 10° 170° (S) 2,594 4.6 -0.9°
Maximum altitude 22:35:47 22° 120° (ESE) 2,903 4.5 -2.1°
Drops below altitude 10° 22:46:39 10° 76° (ENE) 6,193 6.0 -4.8°
Sets 22:56:58 0° 66° (ENE) 9,255 7.0 -7.3°
